This demonstration page uses our WeatherBlox Daily Observations layout. Learn more.

Left ArrowRight Arrow

Hourly Observations for July 6, 2021

Temp ( °F °C ) Dew Point ( °F °C ) Humidity (%) Winds ( mph kmh ) Pressure ( in mb ) Visibility ( mi km ) Precip ( " mm )
12:53 am 00:53 Clear 67 19.4 53 11.7 61 61 E 16 26 30.05 1018 10 16 0.00 0.00
1:53 am 01:53 Partly Cloudy 67 19.4 52 11.1 59 59 E 22 35 30.04 1017 10 16 0.00 0.00
2:45 am 02:45 Cloudy with Nearby Thunderstorms 67 19.4 53 11.7 61 61 E 18 30 30.03 1017 10 16 0.00 0.00
2:53 am 02:53 Cloudy with Thunderstorms 66 18.9 55 12.8 68 68 SSE 9 15 30.12 1020 7 11 0.00 0.00
2:59 am 02:59 Cloudy with Strong Thunderstorms 62 16.7 57 13.9 84 84 E 7 11 30.10 1019 2 3 0.13 3.30
3:10 am 03:10 Cloudy with Strong Thunderstorms 60 15.6 58 14.4 93 93 N 10 17 30.11 1020 3 5 0.37 9.40
3:36 am 03:36 Cloudy with Nearby Thunderstorms 61 16.1 59 15 93 93 ENE 18 30 30.07 1018 10 16 0.45 11.43
3:43 am 03:43 Cloudy with Light Rain 61 16.1 59 15 93 93 E 14 22 30.08 1019 10 16 0.45 11.43
3:53 am 03:53 Cloudy with Light Rain 61 16.1 59 15 93 93 ENE 12 19 30.10 1019 10 16 0.46 11.68
4:53 am 04:53 Mostly Cloudy 61 16.1 60 15.6 97 97 E 15 24 30.07 1018 10 16 0.03 0.76
5:53 am 05:53 Sunny 61 16.1 60 15.6 97 97 E 15 24 30.06 1018 10 16 0.00 0.00
6:53 am 06:53 Sunny 62 16.7 60 15.6 93 93 E 10 17 30.06 1018 10 16 0.00 0.00
7:53 am 07:53 Mostly Cloudy 63 17.2 60 15.6 90 90 E 15 24 30.08 1019 10 16 0.00 0.00
8:53 am 08:53 Sunny 67 19.4 60 15.6 79 79 E 13 20 30.07 1018 10 16 0.00 0.00
9:53 am 09:53 Sunny 71 21.7 61 16.1 71 71 E 13 20 30.06 1018 10 16 0.00 0.00
10:53 am 10:53 Sunny 75 23.9 60 15.6 60 60 E 9 15 30.05 1018 10 16 0.00 0.00
11:53 am 11:53 Mostly Sunny 78 25.6 62 16.7 58 58 ENE 14 22 30.04 1017 10 16 0.00 0.00
12:53 pm 12:53 Mostly Cloudy 78 25.6 60 15.6 54 54 ENE 13 20 30.02 1017 10 16 0.00 0.00
1:53 pm 13:53 Partly Cloudy 82 27.8 62 16.7 51 51 ENE 18 30 30.00 1016 10 16 0.00 0.00
2:53 pm 14:53 Sunny 83 28.3 61 16.1 48 48 E 18 30 29.98 1015 10 16 0.00 0.00
3:53 pm 15:53 Mostly Sunny 84 28.9 61 16.1 46 46 E 20 31 29.97 1015 10 16 0.00 0.00
4:53 pm 16:53 Sunny 85 29.4 60 15.6 43 43 ENE 17 28 29.96 1014 10 16 0.00 0.00
5:53 pm 17:53 Sunny 84 28.9 61 16.1 46 46 ENE 20 31 29.95 1014 10 16 0.00 0.00
6:53 pm 18:53 Sunny 82 27.8 60 15.6 47 47 E 10 17 29.94 1014 10 16 0.00 0.00
7:53 pm 19:53 Sunny 81 27.2 59 15 47 47 E 16 26 29.95 1014 10 16 0.00 0.00
8:53 pm 20:53 Sunny 76 24.4 60 15.6 58 58 E 17 28 29.96 1015 10 16 0.00 0.00
10:53 pm 22:53 Clear 69 20.6 59 15 70 70 E 15 24 29.96 1014 10 16 0.00 0.00
11:53 pm 23:53 Clear 67 19.4 59 15 76 76 ENE 10 17 29.95 1014 10 16 0.00 0.00

Powered by AerisWeather